Location: Campestrin
(46.4667°N, 11.7167°E)
Time: 09:39:07
(UTC+00:00)

Cosmos 2344 - Pass Details

Date: 18 April 2021
Orbit: 1241 x 3001 km, 63.3° (Epoch: 06 May)

Event Time Altitude Azimuth Distance (km) Brightness Sun altitude
Rises 18:23:52 0° 186° (S) 4,363 6.2 -3.9°
Reaches altitude 10° 18:27:00 10° 178° (S) 3,289 5.5 -4.4°
Maximum altitude 18:33:43 36° 114° (ESE) 1,863 4.0 -5.5°
Drops below altitude 10° 18:40:30 10° 51° (NE) 3,330 5.5 -6.5°
Sets 18:43:41 0° 43° (NE) 4,424 6.2 -7.0°
